| time (UTC) | temp C | wind direction | speed KPH | gust KPH | rain 1hr cm | rain 24hr cm | rain mn cm | humidity % | barometer mb |
| 20260504011503 | 13 | 5 | 6.4 | 11.3 | 0.00 | 0.00 | 0.00 | 45 | |
| 20260504011004 | 15 | 13 | 3.2 | 6.4 | 0.00 | 0.00 | 0.00 | 45 | |
| 20260504010503 | 15 | 18 | 0.0 | 3.2 | 0.00 | 0.00 | 0.00 | 44 | |
| 20260504010003 | 15 | 51 | 3.2 | 3.2 | 0.00 | 0.00 | 0.00 | 44 | |
| 20260504005503 | 15 | 50 | 3.2 | 3.2 | 0.00 | 0.00 | 0.00 | 44 | |
| 20260504005004 | 15 | 11 | 3.2 | 3.2 | 0.00 | 0.00 | 0.00 | 44 | |
| 20260504004003 | 15 | 36 | 0.0 | 0.0 | 0.00 | 0.00 | 0.00 | 44 | |
| 20260504002503 | 15 | 21 | 0.0 | 0.0 | 0.00 | 0.00 | 0.00 | 44 | |
| 20260504002006 | 15 | 30 | 3.2 | 3.2 | 0.00 | 0.00 | 0.00 | 44 | |
| 20260504001503 | 15 | 344 | 3.2 | 3.2 | 0.00 | 0.00 | 0.00 | 44 | |
| 20260504001003 | 15 | 49 | 0.0 | 0.0 | 0.00 | 0.00 | 0.00 | 44 | |
| 20260504000503 | 15 | 23 | 3.2 | 3.2 | 0.00 | 0.00 | 0.00 | 44 | |
| 20260504000004 | 15 | 29 | 0.0 | 0.0 | 0.00 | 0.00 | 0.00 | 43 | |
| 20260503235003 | 15 | 342 | 3.2 | 6.4 | 0.00 | 0.00 | 0.00 | 43 | |
| 20260503234504 | 15 | 54 | 0.0 | 3.2 | 0.00 | 0.00 | 0.00 | 43 | |
| 20260503234004 | 15 | 178 | 0.0 | 0.0 | 0.00 | 0.00 | 0.00 | 43 | |
| 20260503233504 | 15 | 168 | 3.2 | 3.2 | 0.00 | 0.00 | 0.00 | 43 | |
| 20260503233004 | 15 | 142 | 0.0 | 0.0 | 0.00 | 0.00 | 0.00 | 43 | |
| 20260503232503 | 15 | 157 | 3.2 | 6.4 | 0.00 | 0.00 | 0.00 | 44 | |
| 20260503232007 | 16 | 137 | 3.2 | 6.4 | 0.00 | 0.00 | 0.00 | 43 | |
| 20260503231503 | 16 | 148 | 6.4 | 6.4 | 0.00 | 0.00 | 0.00 | 43 | |
| 20260503231003 | 16 | 162 | 3.2 | 3.2 | 0.00 | 0.00 | 0.00 | 43 | |
| 20260503230503 | 16 | 139 | 6.4 | 6.4 | 0.00 | 0.00 | 0.00 | 43 | |
| 20260503230004 | 16 | 134 | 3.2 | 6.4 | 0.00 | 0.00 | 0.00 | 43 | |
| 20260503225503 | 16 | 154 | 3.2 | 3.2 | 0.00 | 0.00 | 0.00 | 43 | |
| 20260503225003 | 16 | 128 | 6.4 | 6.4 | 0.00 | 0.00 | 0.00 | 43 | |
| 20260503224504 | 16 | 129 | 6.4 | 6.4 | 0.00 | 0.00 | 0.00 | 42 | |
| 20260503224003 | 16 | 145 | 3.2 | 6.4 | 0.00 | 0.00 | 0.00 | 42 | |
| 20260503223504 | 16 | 151 | 6.4 | 6.4 | 0.00 | 0.00 | 0.00 | 42 | |
| 20260503223003 | 16 | 150 | 6.4 | 11.3 | 0.00 | 0.00 | 0.00 | 42 | |
| 20260503222503 | 16 | 142 | 11.3 | 11.3 | 0.00 | 0.00 | 0.00 | 42 | |
| 20260503222005 | 16 | 149 | 11.3 | 11.3 | 0.00 | 0.00 | 0.00 | 42 | |
| 20260503221504 | 16 | 148 | 11.3 | 14.5 | 0.00 | 0.00 | 0.00 | 42 | |
| 20260503221004 | 16 | 135 | 11.3 | 14.5 | 0.00 | 0.00 | 0.00 | 42 | |
| 20260503220504 | 16 | 110 | 6.4 | 11.3 | 0.00 | 0.00 | 0.00 | 41 | |
| 20260503220004 | 17 | 114 | 6.4 | 11.3 | 0.00 | 0.00 | 0.00 | 41 | |
| 20260503215503 | 17 | 134 | 6.4 | 6.4 | 0.00 | 0.00 | 0.00 | 40 | |
| 20260503215004 | 17 | 112 | 3.2 | 6.4 | 0.00 | 0.00 | 0.00 | 40 | |
| 20260503214503 | 17 | 176 | 3.2 | 6.4 | 0.00 | 0.00 | 0.00 | 40 | |
| 20260503214003 | 17 | 176 | 11.3 | 14.5 | 0.00 | 0.00 | 0.00 | 41 | |
| 20260503213503 | 17 | 157 | 3.2 | 3.2 | 0.00 | 0.00 | 0.00 | 39 | |
| 20260503213003 | 17 | 114 | 3.2 | 3.2 | 0.00 | 0.00 | 0.00 | 39 | |
| 20260503212504 | 17 | 96 | 3.2 | 3.2 | 0.00 | 0.00 | 0.00 | 39 | |
| 20260503212006 | 17 | 172 | 3.2 | 3.2 | 0.00 | 0.00 | 0.00 | 39 | |
| 20260503211503 | 17 | 144 | 14.5 | 17.7 | 0.00 | 0.00 | 0.00 | 40 | |
| 20260503211004 | 17 | 158 | 6.4 | 11.3 | 0.00 | 0.00 | 0.00 | 39 | |
| 20260503210504 | 17 | 137 | 11.3 | 14.5 | 0.00 | 0.00 | 0.00 | 39 | |
| 20260503210003 | 17 | 142 | 6.4 | 11.3 | 0.00 | 0.00 | 0.00 | 38 | |
| 20260503205503 | 17 | 185 | 6.4 | 11.3 | 0.00 | 0.00 | 0.00 | 38 | |
| 20260503205003 | 17 | 146 | 6.4 | 11.3 | 0.00 | 0.00 | 0.00 | 38 | |
| 20260503204503 | 17 | 154 | 11.3 | 17.7 | 0.00 | 0.00 | 0.00 | 38 | |
| 20260503204003 | 17 | 145 | 17.7 | 25.7 | 0.00 | 0.00 | 0.00 | 38 | |
| 20260503203503 | 17 | 108 | 11.3 | 14.5 | 0.00 | 0.00 | 0.00 | 37 | |
| 20260503203003 | 17 | 131 | 11.3 | 14.5 | 0.00 | 0.00 | 0.00 | 37 | |
| 20260503202503 | 17 | 111 | 3.2 | 6.4 | 0.00 | 0.00 | 0.00 | 36 | |
| 20260503202005 | 17 | 120 | 3.2 | 6.4 | 0.00 | 0.00 | 0.00 | 36 | |
| 20260503201508 | 17 | 139 | 11.3 | 14.5 | 0.00 | 0.00 | 0.00 | 36 | |
| 20260503201003 | 17 | 175 | 14.5 | 17.7 | 0.00 | 0.00 | 0.00 | 36 | |
| 20260503200503 | 17 | 115 | 6.4 | 6.4 | 0.00 | 0.00 | 0.00 | 35 | |
| 20260503200004 | 17 | 123 | 6.4 | 14.5 | 0.00 | 0.00 | 0.00 | 35 | |
| 20260503195503 | 18 | 131 | 11.3 | 14.5 | 0.00 | 0.00 | 0.00 | 35 | |
| 20260503195003 | 18 | 136 | 14.5 | 20.9 | 0.00 | 0.00 | 0.00 | 35 | |
| 20260503194503 | 18 | 132 | 11.3 | 11.3 | 0.00 | 0.00 | 0.00 | 35 | |
| 20260503194002 | 18 | 136 | 6.4 | 14.5 | 0.00 | 0.00 | 0.00 | 35 | |
| 20260503193503 | 18 | 118 | 14.5 | 17.7 | 0.00 | 0.00 | 0.00 | 34 | |
| 20260503193003 | 18 | 116 | 3.2 | 6.4 | 0.00 | 0.00 | 0.00 | 34 | |
| 20260503192504 | 18 | 113 | 11.3 | 14.5 | 0.00 | 0.00 | 0.00 | 34 | |
| 20260503192005 | 18 | 122 | 6.4 | 14.5 | 0.00 | 0.00 | 0.00 | 34 | |
| 20260503191503 | 18 | 100 | 6.4 | 11.3 | 0.00 | 0.00 | 0.00 | 34 | |
| 20260503191002 | 18 | 109 | 0.0 | 3.2 | 0.00 | 0.00 | 0.00 | 34 | |
| 20260503190504 | 18 | 119 | 11.3 | 11.3 | 0.00 | 0.00 | 0.00 | 33 | |
| 20260503190003 | 18 | 116 | 6.4 | 14.5 | 0.00 | 0.00 | 0.00 | 33 | |
| 20260503185503 | 18 | 124 | 11.3 | 14.5 | 0.00 | 0.00 | 0.00 | 33 | |
| 20260503185003 | 18 | 107 | 11.3 | 14.5 | 0.00 | 0.00 | 0.00 | 33 | |
| 20260503184504 | 18 | 109 | 11.3 | 14.5 | 0.00 | 0.00 | 0.00 | 33 | |
| 20260503184004 | 18 | 111 | 11.3 | 14.5 | 0.00 | 0.00 | 0.00 | 33 | |
| 20260503183503 | 18 | 112 | 11.3 | 11.3 | 0.00 | 0.00 | 0.00 | 33 | |
| 20260503183004 | 18 | 113 | 11.3 | 14.5 | 0.00 | 0.00 | 0.00 | 33 | |
| 20260503182503 | 20 | 114 | 11.3 | 17.7 | 0.00 | 0.00 | 0.00 | 33 | |
| 20260503182007 | 20 | 101 | 11.3 | 14.5 | 0.00 | 0.00 | 0.00 | 33 | |
| 20260503181505 | 20 | 121 | 11.3 | 14.5 | 0.00 | 0.00 | 0.00 | 33 | |
| 20260503181004 | 20 | 119 | 11.3 | 14.5 | 0.00 | 0.00 | 0.00 | 33 | |
| 20260503180504 | 20 | 123 | 11.3 | 14.5 | 0.00 | 0.00 | 0.00 | 32 | |
| 20260503180008 | 20 | 135 | 11.3 | 11.3 | 0.00 | 0.00 | 0.00 | 32 | |
| 20260503175503 | 20 | 143 | 11.3 | 11.3 | 0.00 | 0.00 | 0.00 | 32 | |
| 20260503175003 | 20 | 143 | 11.3 | 14.5 | 0.00 | 0.00 | 0.00 | 32 | |
| 20260503174503 | 20 | 128 | 11.3 | 11.3 | 0.00 | 0.00 | 0.00 | 33 | |
| 20260503174003 | 20 | 133 | 6.4 | 11.3 | 0.00 | 0.00 | 0.00 | 33 | |
| 20260503173504 | 20 | 117 | 6.4 | 6.4 | 0.00 | 0.00 | 0.00 | 33 | |
| 20260503173004 | 20 | 138 | 6.4 | 6.4 | 0.00 | 0.00 | 0.00 | 33 | |
| 20260503172504 | 20 | 148 | 6.4 | 11.3 | 0.00 | 0.00 | 0.00 | 33 | |
| 20260503172006 | 20 | 151 | 6.4 | 11.3 | 0.00 | 0.00 | 0.00 | 32 | |
| 20260503171503 | 20 | 153 | 6.4 | 6.4 | 0.00 | 0.00 | 0.00 | 32 | |
| 20260503171004 | 20 | 144 | 6.4 | 6.4 | 0.00 | 0.00 | 0.00 | 33 | |
| 20260503170504 | 20 | 124 | 6.4 | 6.4 | 0.00 | 0.00 | 0.00 | 33 | |
| 20260503151003 | 21 | 128 | 3.2 | 6.4 | 0.00 | 0.00 | 0.00 | 32 | |
| 20260503150504 | 21 | 134 | 6.4 | 11.3 | 0.00 | 0.00 | 0.00 | 33 | |
| 20260503131003 | 21 | 170 | 6.4 | 20.9 | 0.00 | 0.00 | 0.00 | 35 | |
| 20260503130503 | 20 | 179 | 6.4 | 11.3 | 0.00 | 0.00 | 0.00 | 35 | |
| 20260503110503 | 18 | 114 | 3.2 | 6.4 | 0.00 | 0.00 | 0.00 | 39 | |
| 20260503090503 | 18 | 140 | 3.2 | 6.4 | 0.00 | 0.00 | 0.00 | 39 | |
| 20260503081503 | 16 | 128 | 3.2 | 6.4 | 0.00 | 0.00 | 0.00 | 42 | |
| 20260503081003 | 16 | 139 | 3.2 | 6.4 | 0.00 | 0.00 | 0.00 | 42 | |
| 20260503080503 | 16 | 146 | 3.2 | 6.4 | 0.00 | 0.00 | 0.00 | 44 | |
| 20260503072502 | 15 | 137 | 3.2 | 3.2 | 0.00 | 0.00 | 0.00 | 44 | |
| 20260503072003 | 15 | 115 | 3.2 | 3.2 | 0.00 | 0.00 | 0.00 | 43 | |
| 20260503071503 | 15 | 126 | 0.0 | 3.2 | 0.00 | 0.00 | 0.00 | 44 | |
| 20260503071003 | 13 | 133 | 0.0 | 3.2 | 0.00 | 0.00 | 0.00 | 44 | |
| 20260503070504 | 15 | 111 | 0.0 | 3.2 | 0.00 | 0.00 | 0.00 | 43 | |
| 20260503055002 | 12 | 51 | 3.2 | 3.2 | 0.00 | 0.00 | 0.00 | 45 | |
| 20260503054504 | 12 | 49 | 3.2 | 6.4 | 0.00 | 0.00 | 0.00 | 45 | |
| 20260503054003 | 12 | 51 | 3.2 | 3.2 | 0.00 | 0.00 | 0.00 | 45 | |
| 20260503053504 | 12 | 63 | 3.2 | 3.2 | 0.00 | 0.00 | 0.00 | 45 | |
| 20260503053002 | 12 | 79 | 3.2 | 3.2 | 0.00 | 0.00 | 0.00 | 45 | |
| 20260503052502 | 12 | 59 | 3.2 | 3.2 | 0.00 | 0.00 | 0.00 | 44 | |
| 20260503052005 | 12 | 58 | 0.0 | 3.2 | 0.00 | 0.00 | 0.00 | 44 | |
| 20260503051504 | 12 | 52 | 3.2 | 3.2 | 0.00 | 0.00 | 0.00 | 44 | |
| 20260503051004 | 12 | 39 | 0.0 | 3.2 | 0.00 | 0.00 | 0.00 | 44 | |
| 20260503050503 | 12 | 37 | 3.2 | 3.2 | 0.00 | 0.00 | 0.00 | 44 | |
| 20260503050003 | 12 | 24 | 3.2 | 3.2 | 0.00 | 0.00 | 0.00 | 45 | |
| 20260503045503 | 12 | 12 | 6.4 | 6.4 | 0.00 | 0.00 | 0.00 | 45 | |
| 20260503045003 | 11 | 14 | 6.4 | 6.4 | 0.00 | 0.00 | 0.00 | 45 | |
| 20260503044504 | 11 | 19 | 6.4 | 6.4 | 0.00 | 0.00 | 0.00 | 45 | |
| 20260503044003 | 11 | 17 | 6.4 | 6.4 | 0.00 | 0.00 | 0.00 | 45 | |
| 20260503043503 | 11 | 25 | 6.4 | 6.4 | 0.00 | 0.00 | 0.00 | 45 | |
| 20260503043003 | 11 | 39 | 6.4 | 6.4 | 0.00 | 0.00 | 0.00 | 46 | |
| 20260503042503 | 11 | 59 | 6.4 | 6.4 | 0.00 | 0.00 | 0.00 | 45 | |
| 20260503042005 | 11 | 89 | 3.2 | 6.4 | 0.00 | 0.00 | 0.00 | 43 | |
| 20260503041504 | 11 | 116 | 6.4 | 6.4 | 0.00 | 0.00 | 0.00 | 43 | |
| 20260503041003 | 12 | 142 | 6.4 | 6.4 | 0.00 | 0.00 | 0.00 | 43 | |
| 20260503040503 | 12 | 157 | 3.2 | 6.4 | 0.00 | 0.00 | 0.00 | 43 | |
| 20260503040003 | 12 | 166 | 3.2 | 3.2 | 0.00 | 0.00 | 0.00 | 43 | |
| 20260503035502 | 12 | 186 | 3.2 | 3.2 | 0.00 | 0.00 | 0.00 | 41 | |
| 20260503035003 | 12 | 122 | 0.0 | 0.0 | 0.00 | 0.00 | 0.00 | 41 | |
| 20260503034503 | 12 | 114 | 0.0 | 0.0 | 0.00 | 0.00 | 0.00 | 41 | |
| 20260503034003 | 12 | 100 | 0.0 | 0.0 | 0.00 | 0.00 | 0.00 | 40 | |
| 20260503033502 | 12 | 100 | 0.0 | 0.0 | 0.00 | 0.00 | 0.00 | 40 | |
| 20260503032503 | 12 | 82 | 0.0 | 0.0 | 0.00 | 0.00 | 0.00 | 40 | |
| 20260503032004 | 12 | 83 | 0.0 | 0.0 | 0.00 | 0.00 | 0.00 | 40 | |
| 20260503031504 | 12 | 95 | 3.2 | 3.2 | 0.00 | 0.00 | 0.00 | 40 | |
| 20260503031003 | 12 | 96 | 0.0 | 3.2 | 0.00 | 0.00 | 0.00 | 39 | |
| 20260503030503 | 12 | 86 | 0.0 | 0.0 | 0.00 | 0.00 | 0.00 | 39 | |
| 20260503030003 | 12 | 86 | 3.2 | 3.2 | 0.00 | 0.00 | 0.00 | 39 | |
| 20260503025504 | 13 | 131 | 0.0 | 0.0 | 0.00 | 0.00 | 0.00 | 39 | |
| 20260503025003 | 13 | 175 | 0.0 | 0.0 | 0.00 | 0.00 | 0.00 | 38 | |
| 20260503024503 | 13 | 194 | 0.0 | 0.0 | 0.00 | 0.00 | 0.00 | 39 | |
| 20260503024003 | 13 | 235 | 0.0 | 0.0 | 0.00 | 0.00 | 0.00 | 39 | |
| 20260503023503 | 13 | 192 | 0.0 | 0.0 | 0.00 | 0.00 | 0.00 | 38 | |
| 20260503023003 | 13 | 162 | 0.0 | 0.0 | 0.00 | 0.00 | 0.00 | 38 | |
| 20260503022502 | 13 | 174 | 0.0 | 0.0 | 0.00 | 0.00 | 0.00 | 38 | |
| 20260503022003 | 13 | 176 | 3.2 | 3.2 | 0.00 | 0.00 | 0.00 | 38 | |
| 20260503021502 | 13 | 175 | 0.0 | 0.0 | 0.00 | 0.00 | 0.00 | 38 | |
| 20260503021004 | 13 | 94 | 0.0 | 0.0 | 0.00 | 0.00 | 0.00 | 38 | |
| 20260503020503 | 15 | 181 | 3.2 | 3.2 | 0.00 | 0.00 | 0.00 | 38 | |
| 20260503020004 | 15 | 152 | 0.0 | 0.0 | 0.00 | 0.00 | 0.00 | 38 | |
| 20260503015503 | 13 | 181 | 0.0 | 0.0 | 0.00 | 0.00 | 0.00 | 38 | |
| 20260503015004 | 13 | 193 | 0.0 | 3.2 | 0.00 | 0.00 | 0.00 | 38 | |
| 20260503014503 | 13 | 94 | 0.0 | 0.0 | 0.00 | 0.00 | 0.00 | 38 | |
| 20260503014003 | 13 | 95 | 0.0 | 0.0 | 0.00 | 0.00 | 0.00 | 38 | |
| 20260503013503 | 13 | 94 | 0.0 | 0.0 | 0.00 | 0.00 | 0.00 | 39 | |
| 20260503012004 | 13 | 94 | 0.0 | 0.0 | 0.00 | 0.00 | 0.00 | 38 |